#timestamp,LO_Frequency,Hit,StdDev 
1607374815.8,286047002.1,N
1607374835.6,286047003.3,N
1607374855.4,286046998.6,N
1607374875.3,286047000.3,N
1607374895.1,286046996.9,N
1607374915.8,286046997.1,N
1607374935.7,286046996.9,N
1607374955.5,286046997.3,N
1607374975.4,286046995.2,N
1607374995.2,286046995.9,N
1607375015.0,286046995.3,N
1607375015.9,286046995.3,N
1607375035.8,286046996.1,N
1607375055.6,286046998.0,N
1607375075.5,286046997.9,N
1607375095.3,286046997.1,N
1607375115.1,286046999.6,N
1607375135.9,286046999.5,N
1607375155.7,286047000.3,N
1607375175.5,286046999.2,N
1607375195.4,286046998.4,N
1607375215.2,286047002.2,N
1607375235.1,286047000.5,N
1607375236.0,286047000.5,N
1607375255.8,286047001.9,N
1607375275.6,286047002.5,N
1607375295.5,286047003.7,N
1607375315.3,286047011.9,Y
1607375335.2,286047001.5,P
1607375355.9,286047002.2,N
1607375375.7,286047002.8,N
1607375395.6,286047001.7,N
1607375415.4,286047002.7,N
1607375435.2,286047001.9,N
1607375455.1,286047001.0,N
1607375456.0,286047001.0,N
1607375475.8,286046999.2,N
1607375495.7,286046998.5,N
1607375515.5,286046999.7,N
1607375535.3,286047000.8,N
1607375555.2,286047000.0,N
1607375575.0,286047001.2,N
1607375575.9,286047001.2,N
1607375595.7,286047001.8,N
1607375615.6,286047002.3,N
1607375635.4,286047000.3,N
1607375655.3,286047000.3,N
1607375675.1,286046998.3,N
1607375676.0,286046998.3,N
1607375695.8,286047000.7,N
1607375715.7,286047001.0,N
1607375735.5,286046998.5,N
1607375755.3,286046998.8,N
1607375775.2,286047004.4,Y
1607375795.0,286047004.8,P
1607375795.9,286047004.8,N
1607375815.8,286047005.1,N
1607375835.6,286047005.5,N
1607375855.4,286047001.9,N
1607375875.3,286047000.1,N
1607375895.1,286046999.8,N
1607375915.8,286047000.3,N
1607375935.7,286047001.5,N
1607375955.5,286047000.3,N
1607375975.4,286047001.2,N
1607375995.2,286047002.4,N
1607376015.0,286046999.9,N
1607376015.9,286046999.9,N
1607376035.8,286047002.5,N
1607376055.6,286047000.3,N
1607376075.4,286047001.5,N
1607376095.3,286047003.1,N
1607376115.1,286047003.2,N
1607376135.9,286047003.3,N
1607376155.7,286047005.6,Y
1607376175.5,286047004.6,P
1607376195.4,286047005.7,P
1607376215.2,286047007.2,P
1607376235.1,286047005.3,N
1607376236.0,286047005.3,Y
1607376255.8,286046999.7,P
1607376275.6,286046999.5,N
1607376295.5,286046997.8,N
1607376315.3,286046999.5,N
1607376335.1,286047001.0,N
1607376355.9,286046998.9,N
1607376375.7,286047000.0,N
1607376395.6,286047002.5,N
1607376415.4,286047002.1,N
1607376435.2,286047001.1,N
1607376455.1,286047002.6,N
1607376456.0,286047002.6,N
1607376475.8,286046999.8,N
1607376495.6,286047000.1,N
1607376515.5,286047002.0,N
1607376535.3,286047002.4,N
1607376555.2,286047003.6,N
1607376575.9,286047006.0,Y
1607376595.7,286047005.6,P
1607376615.6,286047002.2,N
1607376635.4,286047001.7,N
1607376655.2,286047003.7,N
1607376675.1,286047006.2,Y
1607376676.0,286047006.2,P
1607376695.8,286047002.7,N
1607376715.7,286047002.3,N
1607376735.5,286047000.9,N
1607376755.3,286047005.7,Y
1607376775.2,286046998.7,P
1607376795.0,286046999.2,N
1607376795.9,286046999.2,N
1607376815.8,286046999.9,N
1607376835.6,286047004.1,N
1607376855.4,286047004.0,N
1607376875.3,286047004.2,N
1607376895.1,286047003.0,N
1607376915.8,286047005.0,N
1607376935.7,286047005.9,N
1607376955.5,286047005.9,N
1607376975.4,286047007.1,N
1607376995.2,286047003.4,N
1607377015.0,286047004.7,N
1607377015.9,286047004.7,N
1607377035.8,286047005.9,N
1607377055.6,286047001.3,N
1607377075.4,286047003.5,N
1607377095.3,286047004.4,N
1607377115.1,286047004.2,N
1607377135.9,286047002.4,N
1607377155.7,286047002.3,N
1607377175.5,286047001.4,N
1607377195.4,286047003.1,N
1607377215.2,286047004.0,N
1607377235.1,286047007.6,Y
1607377236.0,286047007.6,P
1607377255.8,286047004.0,N
1607377275.6,286047005.6,N
1607377295.5,286047005.9,Y
1607377315.3,286047001.2,P
1607377335.1,286047000.5,N
1607377355.9,286046998.1,N
1607377375.7,286047000.7,N
1607377395.6,286047000.2,N
1607377415.4,286047002.7,N
1607377435.2,286047000.1,N
1607377455.1,286046998.9,N
1607377456.0,286046998.9,N
1607377475.8,286047000.9,N
1607377495.6,286047001.9,N
1607377515.5,286047000.1,N
1607377535.3,286047004.2,N
1607377555.2,286047002.3,N
1607377575.9,286047001.8,N
1607377595.7,286047001.3,N
1607377615.6,286047004.1,N
1607377665.4,286047001.3,E
1607377675.4,286047004.2,N
1607377695.2,286047004.4,P
1607377715.0,286047003.9,P
1607377715.9,286047003.9,Y
1607377735.8,286047001.1,P
1607377755.6,286046999.8,N
1607377775.5,286047002.6,N
1607377795.3,286047000.1,N
1607377815.1,286047001.8,N
1607377835.9,286047000.1,N
1607377855.7,286046999.9,N
1607377875.5,286047000.0,N
1607377895.4,286047003.9,N
1607377915.2,286047002.2,N
1607377935.1,286047003.4,N
1607377936.0,286047003.4,N
1607377955.8,286047003.2,N
1607377975.6,286047003.1,N
1607377995.5,286047005.9,Y
1607378015.3,286047011.9,P
1607378035.1,286047002.9,N
1607378055.9,286047007.4,N
1607378075.7,286047006.3,N
1607378095.6,286047007.6,N
1607378115.4,286047004.9,N
1607378135.2,286047006.0,N
1607378155.1,286047003.4,N
1607378156.0,286047003.4,N
1607378175.8,286047004.6,N
1607378195.7,286047009.1,Y
1607378215.5,286047000.5,P
1607378235.3,286047002.7,N
1607378255.2,286047000.2,N
1607378275.0,286047003.1,N
1607378275.9,286047003.1,N
1607378295.7,286047003.1,N
1607378315.6,286047002.5,N
1607378335.4,286047002.3,N
1607378355.3,286047004.3,N
1607378375.1,286047005.8,Y
1607378376.0,286047005.8,P
1607378395.8,286047001.6,N
